QPF
0.00 0.00 0.00 0.04 0.04 0.04 0.17 0.05 0.00 0.00 0.00 0.00 0.00 0.00 0.00 0.01 0.01 0.00 0.00 0.00 0.00 0.00 0.00 0.00 0.00 0.00 0.00 0.00 0.00 0.00 0.00 0.00 0.00 0.00 0.00 0.00 0.00 0.00 0.00 0.01 0.01 0.01 0.01 0.01 0.00 0.03 0.01 0.01 0.00
0.00 0.00 0.04 0.13 0.08 0.09 0.12 0.01 0.00 0.00 0.00 0.00 0.00 0.00 0.00 0.00 0.00 0.00 0.00 0.00 0.00 0.00 0.00 0.00 0.00 0.00 0.00 0.00 0.00 0.01 0.00 0.01 0.00 0.00 0.00 0.00 0.00 0.00 0.00 0.00 0.00 0.01 0.01 0.02 0.01 0.02 0.02 0.01 0.00
0.00 0.00 0.13 0.23 0.16 0.14 0.09 0.01 0.00 0.00 0.00 0.00 0.01 0.02 0.00 0.00 0.00 0.00 0.00 0.00 0.00 0.00 0.00 0.00 0.03 0.02 0.00 0.00 0.01 0.04 0.01 0.02 0.01 0.00 0.00 0.00 0.00 0.00 0.00 0.00 0.00 0.01 0.02 0.04 0.05 0.04 0.00 0.00 0.00
0.00 0.05 0.10 0.25 0.19 0.09 0.01 0.00 0.00 0.00 0.00 0.00 0.00 0.00 0.00 0.00 0.00 0.00 0.00 0.00 0.00 0.00 0.00 0.00 0.01 0.00 0.00 0.00 0.01 0.02 0.00 0.02 0.07 0.00 0.00 0.00 0.02 0.01 0.00 0.00 0.00 0.00 0.01 0.02 0.03 0.02 0.00 0.00 0.00
0.01 0.18 0.24 0.20 0.15 0.05 0.00 0.00 0.00 0.00 0.00 0.00 0.00 0.00 0.00 0.00 0.00 0.00 0.00 0.00 0.00 0.00 0.00 0.00 0.00 0.00 0.00 0.00 0.02 0.02 0.00 0.03 0.06 0.01 0.00 0.00 0.05 0.03 0.00 0.00 0.00 0.00 0.00 0.00 0.00 0.00 0.04 0.02 0.00
0.07 0.26 0.23 0.16 0.12 0.09 0.01 0.00 0.00 0.00 0.00 0.00 0.00 0.00 0.00 0.00 0.00 0.00 0.00 0.00 0.00 0.00 0.00 0.00 0.00 0.00 0.00 0.00 0.00 0.00 0.01 0.01 0.01 0.01 0.00 0.01 0.00 0.01 0.01 0.02 0.00 0.00 0.00 0.00 0.00 0.00 0.01 0.00 0.00
0.04 0.23 0.11 0.14 0.12 0.14 0.07 0.00 0.01 0.00 0.01 0.02 0.00 0.00 0.00 0.00 0.00 0.00 0.00 0.00 0.00 0.01 0.00 0.00 0.00 0.00 0.00 0.00 0.00 0.00 0.00 0.00 0.00 0.01 0.00 0.00 0.00 0.00 0.00 0.00 0.00 0.00 0.00 0.00 0.00 0.00 0.00 0.00 0.00
0.00 0.07 0.08 0.04 0.11 0.11 0.01 0.00 0.00 0.00 0.03 0.03 0.03 0.00 0.00 0.00 0.00 0.00 0.00 0.00 0.00 0.00 0.00 0.00 0.00 0.01 0.03 0.00 0.00 0.00 0.00 0.00 0.00 0.00 0.01 0.03 0.01 0.01 0.00 0.00 0.00 0.00 0.00 0.00 0.00 0.00 0.00 0.00 0.00
0.00 0.08 0.03 0.01 0.04 0.10 0.00 0.00 0.00 0.00 0.01 0.01 0.02 0.00 0.00 0.00 0.00 0.00 0.00 0.00 0.00 0.00 0.00 0.00 0.00 0.00 0.03 0.00 0.00 0.00 0.00 0.00 0.00 0.01 0.06 0.15 0.08 0.00 0.00 0.00 0.00 0.00 0.00 0.00 0.00 0.00 0.00 0.00 0.00
0.02 0.03 0.04 0.00 0.00 0.00 0.00 0.00 0.00 0.04 0.01 0.01 0.02 0.00 0.00 0.00 0.00 0.00 0.00 0.00 0.00 0.00 0.00 0.01 0.00 0.00 0.00 0.00 0.01 0.04 0.02 0.05 0.05 0.03 0.05 0.08 0.01 0.00 0.00 0.00 0.00 0.00 0.00 0.00 0.00 0.00 0.00 0.00 0.00
0.03 0.06 0.04 0.00 0.00 0.01 0.00 0.08 0.08 0.13 0.14 0.01 0.00 0.00 0.00 0.00 0.00 0.00 0.00 0.00 0.00 0.00 0.00 0.00 0.01 0.00 0.00 0.00 0.16 0.06 0.00 0.00 0.01 0.03 0.05 0.00 0.00 0.00 0.00 0.00 0.00 0.00 0.00 0.00 0.00 0.00 0.00 0.00 0.00
0.03 0.03 0.01 0.00 0.00 0.02 0.03 0.03 0.10 0.09 0.06 0.00 0.00 0.00 0.00 0.00 0.00 0.00 0.00 0.00 0.00 0.00 0.00 0.00 0.00 0.00 0.02 0.05 0.06 0.00 0.00 0.00 0.00 0.00 0.00 0.00 0.01 0.00 0.01 0.00 0.00 0.00 0.00 0.01 0.00 0.00 0.01 0.00 0.00
0.01 0.01 0.00 0.00 0.00 0.01 0.03 0.01 0.04 0.07 0.00 0.00 0.00 0.00 0.00 0.00 0.00 0.00 0.00 0.00 0.00 0.00 0.00 0.00 0.00 0.00 0.05 0.09 0.02 0.03 0.03 0.00 0.00 0.00 0.00 0.00 0.00 0.00 0.00 0.00 0.00 0.00 0.00 0.01 0.00 0.00 0.00 0.00 0.00
0.00 0.01 0.00 0.00 0.01 0.00 0.00 0.00 0.00 0.06 0.00 0.02 0.01 0.00 0.00 0.00 0.00 0.00 0.00 0.00 0.00 0.00 0.00 0.00 0.00 0.00 0.00 0.03 0.01 0.02 0.04 0.02 0.00 0.00 0.00 0.00 0.00 0.00 0.00 0.00 0.00 0.00 0.00 0.00 0.00 0.00 0.00 0.00 0.00
0.00 0.00 0.00 0.00 0.01 0.00 0.00 0.03 0.09 0.03 0.00 0.01 0.00 0.00 0.00 0.00 0.00 0.00 0.00 0.00 0.00 0.00 0.00 0.00 0.00 0.00 0.00 0.00 0.02 0.13 0.17 0.09 0.02 0.00 0.00 0.00 0.00 0.00 0.00 0.00 0.00 0.00 0.00 0.00 0.00 0.01 0.00 0.00 0.00
0.00 0.00 0.00 0.00 0.00 0.00 0.01 0.08 0.14 0.03 0.01 0.01 0.00 0.00 0.00 0.00 0.00 0.00 0.00 0.00 0.00 0.00 0.00 0.00 0.00 0.00 0.00 0.00 0.02 0.07 0.11 0.12 0.12 0.00 0.00 0.00 0.00 0.00 0.00 0.00 0.00 0.00 0.00 0.00 0.00 0.00 0.00 0.00 0.00
0.00 0.00 0.00 0.00 0.00 0.03 0.07 0.12 0.11 0.05 0.04 0.01 0.00 0.00 0.00 0.00 0.00 0.00 0.00 0.00 0.00 0.00 0.00 0.00 0.00 0.00 0.00 0.00 0.00 0.02 0.10 0.08 0.03 0.02 0.03 0.00 0.00 0.00 0.01 0.01 0.02 0.00 0.00 0.00 0.00 0.02 0.00 0.00 0.00
0.00 0.00 0.00 0.00 0.00 0.02 0.06 0.04 0.04 0.04 0.07 0.00 0.00 0.00 0.00 0.00 0.00 0.00 0.00 0.00 0.00 0.00 0.00 0.00 0.00 0.00 0.00 0.00 0.00 0.00 0.00 0.00 0.04 0.14 0.08 0.05 0.01 0.02 0.12 0.10 0.00 0.00 0.00 0.01 0.01 0.01 0.00 0.00 0.00
0.00 0.00 0.01 0.00 0.00 0.01 0.04 0.04 0.03 0.07 0.07 0.00 0.00 0.00 0.00 0.00 0.00 0.00 0.00 0.00 0.00 0.00 0.00 0.00 0.00 0.00 0.00 0.00 0.00 0.00 0.02 0.01 0.00 0.06 0.04 0.02 0.00 0.01 0.07 0.05 0.00 0.00 0.00 0.01 0.00 0.00 0.00 0.00 0.00
0.00 0.00 0.00 0.01 0.02 0.02 0.01 0.01 0.04 0.16 0.15 0.01 0.02 0.00 0.00 0.00 0.00 0.00 0.00 0.00 0.00 0.00 0.00 0.00 0.00 0.00 0.00 0.00 0.01 0.02 0.03 0.01 0.01 0.01 0.01 0.01 0.00 0.00 0.00 0.00 0.00 0.01 0.01 0.00 0.00 0.00 0.01 0.00 0.00
0.00 0.00 0.00 0.01 0.03 0.02 0.00 0.01 0.01 0.05 0.07 0.09 0.02 0.01 0.00 0.00 0.00 0.00 0.00 0.00 0.00 0.00 0.00 0.00 0.00 0.00 0.00 0.00 0.01 0.03 0.06 0.06 0.05 0.03 0.01 0.00 0.00 0.00 0.00 0.00 0.01 0.00 0.01 0.00 0.00 0.00 0.00 0.00 0.00
0.00 0.00 0.00 0.00 0.02 0.00 0.00 0.02 0.03 0.05 0.11 0.13 0.10 0.02 0.00 0.00 0.00 0.00 0.00 0.00 0.00 0.00 0.00 0.00 0.00 0.00 0.01 0.01 0.01 0.01 0.05 0.06 0.04 0.01 0.01 0.00 0.00 0.00 0.00 0.00 0.00 0.00 0.01 0.00 0.00 0.00 0.00 0.00 0.00
0.00 0.00 0.00 0.00 0.00 0.00 0.00 0.01 0.04 0.05 0.05 0.08 0.08 0.01 0.00 0.01 0.00 0.00 0.00 0.00 0.00 0.00 0.00 0.00 0.00 0.00 0.02 0.02 0.05 0.04 0.07 0.10 0.08 0.02 0.04 0.02 0.01 0.00 0.00 0.00 0.00 0.02 0.08 0.03 0.01 0.00 0.00 0.01 0.01
0.00 0.00 0.00 0.00 0.00 0.00 0.00 0.00 0.01 0.06 0.10 0.05 0.01 0.01 0.00 0.00 0.00 0.00 0.00 0.00 0.00 0.00 0.00 0.00 0.00 0.00 0.01 0.00 0.02 0.04 0.03 0.11 0.16 0.09 0.07 0.01 0.00 0.00 0.00 0.00 0.00 0.01 0.04 0.03 0.01 0.00 0.00 0.02 0.01
0.00 0.00 0.00 0.00 0.00 0.00 0.00 0.00 0.03 0.02 0.04 0.10 0.09 0.23 0.15 0.09 0.03 0.00 0.00 0.00 0.00 0.00 0.00 0.00 0.00 0.00 0.00 0.00 0.00 0.01 0.03 0.13 0.21 0.10 0.02 0.01 0.00 0.00 0.00 0.00 0.00 0.01 0.02 0.02 0.01 0.00 0.00 0.00 0.00
0.00 0.00 0.00 0.00 0.00 0.00 0.00 0.02 0.02 0.00 0.00 0.02 0.08 0.14 0.22 0.08 0.11 0.04 0.01 0.00 0.00 0.00 0.00 0.00 0.00 0.00 0.00 0.00 0.00 0.00 0.01 0.02 0.02 0.01 0.00 0.00 0.03 0.04 0.03 0.02 0.00 0.02 0.02 0.01 0.01 0.01 0.00 0.00 0.00
0.00 0.00 0.00 0.00 0.00 0.00 0.00 0.00 0.01 0.00 0.00 0.00 0.00 0.00 0.06 0.11 0.03 0.03 0.02 0.02 0.01 0.01 0.00 0.00 0.00 0.00 0.00 0.00 0.00 0.00 0.00 0.01 0.00 0.00 0.00 0.00 0.07 0.10 0.14 0.04 0.00 0.01 0.01 0.02 0.03 0.01 0.01 0.01 0.00
0.00 0.00 0.00 0.00 0.00 0.00 0.00 0.00 0.00 0.00 0.00 0.00 0.00 0.00 0.00 0.06 0.08 0.01 0.04 0.04 0.05 0.03 0.06 0.02 0.00 0.00 0.02 0.01 0.01 0.00 0.00 0.00 0.00 0.00 0.00 0.00 0.02 0.09 0.16 0.05 0.01 0.00 0.01 0.01 0.02 0.01 0.02 0.01 0.01
0.00 0.00 0.00 0.00 0.00 0.00 0.04 0.09 0.01 0.00 0.00 0.00 0.00 0.00 0.00 0.00 0.01 0.04 0.04 0.06 0.09 0.14 0.08 0.20 0.11 0.04 0.02 0.03 0.03 0.01 0.00 0.00 0.00 0.00 0.00 0.00 0.00 0.04 0.06 0.10 0.02 0.00 0.00 0.01 0.03 0.05 0.06 0.04 0.02
0.00 0.00 0.00 0.00 0.00 0.00 0.01 0.06 0.02 0.00 0.00 0.00 0.00 0.00 0.00 0.00 0.00 0.01 0.02 0.04 0.20 0.33 0.18 0.16 0.26 0.23 0.14 0.10 0.06 0.02 0.02 0.02 0.01 0.00 0.00 0.00 0.00 0.00 0.01 0.03 0.03 0.03 0.03 0.02 0.00 0.01 0.02 0.04 0.01
MSLP
1009.50 1009.27 1008.75 1009.03 1009.73 1008.57 1006.67 1004.79 1002.82 1001.51 1001.13 1001.45 1002.04 1003.37 1005.41 1006.25 1006.56 1008.99 1010.38 1011.24 1012.62 1013.75 1014.73 1015.12 1015.57 1015.76 1015.96 1016.20 1016.34 1016.48 1016.60 1016.71 1016.80 1016.86 1016.91 1016.95 1017.04 1017.13 1017.27 1017.25 1017.29 1017.33 1017.38 1017.54 1017.51 1017.47 1017.52 1017.61 1017.71
1008.72 1008.15 1008.57 1009.01 1008.87 1006.80 1005.59 1003.74 1002.43 1002.09 1002.00 1002.43 1003.18 1004.03 1005.30 1006.87 1007.11 1008.63 1009.84 1011.31 1012.46 1013.61 1014.31 1015.18 1015.75 1016.01 1016.22 1016.45 1016.59 1016.68 1016.78 1017.02 1017.11 1017.15 1017.24 1017.35 1017.44 1017.53 1017.54 1017.52 1017.57 1017.69 1017.76 1017.73 1017.79 1017.78 1017.83 1017.93 1017.99
1009.06 1008.39 1008.90 1007.85 1007.17 1005.68 1004.63 1003.26 1002.69 1002.56 1002.82 1002.85 1004.75 1005.31 1005.83 1007.21 1008.14 1008.63 1010.07 1011.20 1012.37 1013.37 1014.34 1015.49 1015.94 1016.21 1016.43 1016.54 1016.74 1016.83 1017.01 1017.18 1017.31 1017.32 1017.35 1017.52 1017.65 1017.82 1017.84 1017.86 1017.93 1018.01 1018.21 1018.25 1018.22 1018.19 1018.23 1018.29 1018.18
1008.57 1008.35 1008.37 1007.27 1005.89 1005.00 1004.09 1003.07 1003.04 1002.85 1002.97 1004.01 1004.84 1006.11 1007.00 1007.55 1008.41 1009.41 1010.15 1011.15 1012.31 1013.61 1014.83 1015.76 1016.01 1016.26 1016.49 1016.69 1016.93 1017.03 1017.16 1017.33 1017.46 1017.52 1017.58 1017.69 1017.85 1018.03 1018.10 1018.19 1018.26 1018.38 1018.47 1018.49 1018.59 1018.59 1018.62 1018.66 1018.59
1007.92 1007.99 1007.43 1006.55 1005.18 1004.69 1003.90 1003.38 1003.28 1003.29 1003.94 1004.64 1005.79 1006.89 1007.60 1008.18 1009.15 1009.67 1010.38 1011.20 1012.25 1013.75 1015.09 1015.81 1016.16 1016.31 1016.51 1016.71 1016.95 1017.13 1017.35 1017.57 1017.63 1017.78 1017.85 1017.97 1018.10 1018.23 1018.35 1018.43 1018.57 1018.68 1018.67 1018.70 1018.78 1018.88 1018.98 1019.06 1018.88
1007.88 1007.42 1006.91 1006.44 1005.75 1004.70 1003.97 1003.99 1004.30 1004.15 1004.75 1005.87 1006.57 1007.36 1008.27 1009.04 1009.46 1009.60 1010.23 1011.64 1012.50 1013.63 1014.72 1015.64 1016.21 1016.35 1016.57 1016.84 1016.91 1017.17 1017.42 1017.64 1017.86 1018.00 1018.09 1018.29 1018.34 1018.48 1018.67 1018.66 1018.76 1018.89 1018.91 1018.91 1019.12 1019.25 1019.31 1019.29 1019.13
1006.96 1006.71 1006.58 1006.26 1005.95 1005.76 1004.95 1004.75 1005.42 1005.20 1005.45 1006.15 1006.74 1007.64 1008.67 1009.24 1009.53 1009.73 1010.67 1011.88 1012.56 1013.13 1014.49 1015.46 1016.04 1016.54 1016.75 1017.09 1017.19 1017.39 1017.63 1017.84 1018.01 1018.11 1018.20 1018.38 1018.55 1018.70 1018.87 1018.93 1019.00 1019.09 1019.16 1019.24 1019.33 1019.39 1019.41 1019.32 1019.28
1005.25 1006.08 1006.24 1005.91 1005.89 1006.17 1006.27 1005.82 1006.38 1006.38 1006.38 1006.83 1007.06 1007.86 1008.35 1009.07 1009.34 1010.13 1010.52 1012.13 1012.85 1013.35 1014.29 1014.98 1015.89 1016.28 1016.84 1017.23 1017.48 1017.64 1017.83 1018.05 1018.12 1018.25 1018.37 1018.40 1018.63 1018.87 1019.04 1019.18 1019.25 1019.29 1019.35 1019.37 1019.42 1019.43 1019.31 1019.18 1019.21
1004.83 1007.09 1006.19 1005.24 1005.19 1006.20 1007.06 1006.99 1007.23 1007.22 1006.55 1006.94 1006.89 1007.68 1008.27 1009.20 1009.25 1010.00 1011.43 1012.14 1012.75 1012.99 1013.83 1014.56 1015.54 1016.19 1016.85 1017.36 1017.72 1017.84 1017.93 1018.11 1018.17 1018.48 1018.59 1018.71 1018.53 1018.75 1019.09 1019.35 1019.42 1019.44 1019.47 1019.51 1019.61 1019.62 1019.56 1019.52 1019.28
1005.06 1006.88 1005.90 1004.49 1004.71 1005.98 1007.07 1007.19 1007.57 1007.36 1007.37 1007.13 1007.20 1008.11 1008.89 1009.14 1009.33 1010.02 1011.32 1012.05 1012.77 1013.49 1013.96 1014.55 1015.11 1016.20 1016.10 1016.49 1017.53 1017.93 1018.01 1017.98 1018.04 1018.20 1018.37 1018.70 1018.57 1018.51 1018.98 1019.41 1019.49 1019.48 1019.52 1019.63 1019.61 1019.83 1019.70 1019.59 1019.28
1004.70 1005.49 1004.77 1004.59 1004.47 1005.94 1006.77 1007.67 1008.47 1008.33 1007.70 1007.29 1007.57 1008.26 1009.00 1009.17 1009.47 1009.90 1010.79 1011.73 1012.82 1013.52 1014.20 1015.43 1015.81 1015.71 1015.55 1015.93 1016.96 1017.31 1017.64 1017.73 1017.90 1018.24 1018.32 1018.10 1018.50 1018.86 1018.92 1019.35 1019.44 1019.43 1019.49 1019.48 1019.31 1020.27 1020.04 1019.39 1019.23
1003.00 1003.71 1003.60 1003.92 1004.91 1006.19 1006.86 1008.06 1009.43 1009.69 1008.15 1008.02 1008.15 1008.72 1008.91 1009.17 1009.41 1009.86 1010.68 1011.91 1012.43 1013.61 1014.35 1015.13 1015.42 1015.24 1015.83 1017.15 1017.12 1016.71 1017.53 1017.45 1017.70 1018.02 1018.10 1018.14 1018.54 1019.02 1019.06 1018.81 1019.02 1019.31 1019.23 1019.67 1019.97 1019.94 1019.22 1018.75 1018.38
1001.87 1002.23 1002.83 1003.69 1005.03 1006.63 1007.76 1008.51 1009.62 1010.14 1009.23 1008.71 1008.56 1008.88 1009.09 1009.07 1009.37 1009.83 1010.59 1011.75 1013.13 1014.21 1014.21 1015.18 1015.40 1015.51 1016.62 1017.47 1017.38 1017.55 1017.78 1017.35 1017.56 1017.91 1017.94 1018.25 1018.23 1018.41 1018.53 1018.69 1018.74 1019.17 1018.97 1019.38 1019.81 1019.88 1019.43 1019.03 1018.75
1000.79 1002.17 1002.14 1003.45 1004.67 1006.42 1007.81 1009.41 1009.74 1010.36 1009.49 1009.17 1008.87 1008.97 1009.07 1009.06 1009.28 1009.84 1010.79 1011.87 1012.56 1013.06 1013.89 1014.87 1015.53 1015.77 1015.80 1016.60 1017.25 1017.79 1017.55 1018.09 1017.85 1017.86 1017.85 1018.12 1018.21 1018.36 1018.51 1018.76 1018.60 1018.91 1019.36 1019.65 1019.65 1019.35 1019.76 1019.23 1019.09
1000.99 1001.04 1001.50 1003.36 1004.72 1005.78 1007.79 1009.67 1010.20 1010.38 1009.43 1009.05 1008.65 1008.80 1008.84 1008.98 1009.31 1010.04 1011.05 1012.10 1012.70 1013.02 1014.02 1014.98 1015.51 1015.94 1016.56 1016.48 1017.25 1018.28 1018.50 1018.62 1017.76 1017.93 1018.08 1017.95 1018.21 1018.54 1018.79 1018.80 1018.99 1018.96 1019.19 1019.53 1019.66 1019.58 1019.29 1019.41 1019.03
1000.61 1000.72 1001.01 1002.31 1003.82 1005.46 1006.84 1009.56 1010.77 1010.56 1009.72 1008.66 1008.59 1008.56 1008.62 1008.88 1009.44 1010.17 1011.15 1012.17 1012.98 1013.18 1014.16 1014.95 1015.03 1015.91 1016.65 1016.75 1017.28 1018.21 1018.66 1018.05 1018.58 1017.86 1018.11 1018.17 1018.26 1018.54 1018.79 1018.76 1019.11 1018.98 1019.19 1019.57 1019.71 1019.69 1019.63 1019.16 1019.17
1000.40 1000.09 1000.31 1001.87 1002.93 1005.46 1007.27 1010.07 1011.41 1010.79 1009.89 1008.62 1008.48 1008.47 1008.59 1008.92 1009.51 1010.23 1011.19 1012.13 1012.95 1013.48 1014.27 1014.63 1015.04 1015.77 1016.40 1016.75 1016.84 1017.80 1018.47 1018.41 1017.92 1018.02 1018.12 1018.29 1018.41 1018.61 1018.89 1019.15 1019.27 1019.14 1019.42 1019.88 1019.94 1019.77 1019.75 1019.42 1019.33
999.71 999.48 1000.14 1001.12 1002.95 1005.39 1007.77 1010.01 1011.32 1011.11 1010.22 1008.80 1008.39 1008.47 1008.65 1009.18 1009.58 1010.27 1011.15 1012.05 1012.83 1013.68 1014.39 1014.60 1014.99 1015.72 1016.36 1016.75 1016.80 1017.04 1017.02 1017.35 1018.36 1018.37 1018.57 1018.28 1018.45 1018.85 1019.55 1019.29 1019.13 1019.30 1019.65 1020.03 1020.09 1020.24 1019.69 1019.67 1019.40
998.79 998.82 1000.11 1000.89 1002.94 1005.05 1007.57 1010.05 1011.19 1011.51 1010.07 1008.92 1008.55 1008.50 1008.79 1009.33 1009.73 1010.29 1010.94 1011.81 1012.69 1013.68 1014.44 1014.73 1015.27 1015.85 1016.44 1016.72 1016.89 1017.26 1017.36 1017.26 1017.85 1018.60 1018.45 1018.21 1018.27 1018.55 1019.55 1019.65 1019.15 1019.47 1019.91 1020.01 1019.99 1019.87 1019.66 1019.60 1019.31
998.98 999.28 999.91 1003.00 1003.09 1005.19 1007.89 1010.05 1011.39 1011.73 1010.89 1009.38 1008.56 1008.46 1008.82 1009.47 1009.80 1010.07 1010.66 1011.37 1012.42 1013.58 1014.41 1014.88 1015.37 1015.88 1016.34 1016.51 1016.77 1017.09 1017.74 1017.55 1017.43 1017.60 1017.71 1017.85 1018.15 1018.44 1018.52 1019.00 1018.99 1019.41 1019.77 1019.82 1019.86 1020.04 1019.99 1019.62 1019.40
998.30 998.33 999.64 1002.80 1003.14 1005.20 1007.75 1010.03 1011.79 1012.20 1011.49 1010.59 1008.82 1008.57 1008.90 1009.54 1009.91 1009.87 1010.33 1011.01 1012.07 1013.27 1014.19 1014.84 1015.30 1015.77 1016.21 1016.35 1017.04 1017.44 1018.19 1017.84 1018.09 1018.05 1017.88 1017.77 1018.07 1018.27 1018.51 1018.74 1018.99 1019.38 1019.42 1019.69 1019.81 1019.98 1020.03 1019.86 1019.56
997.74 997.78 1000.19 1001.04 1001.71 1004.08 1005.93 1008.69 1010.29 1011.19 1011.07 1009.43 1009.34 1009.33 1008.99 1009.53 1010.16 1009.56 1010.04 1010.47 1011.40 1012.71 1013.77 1014.66 1015.16 1015.71 1016.14 1016.62 1016.71 1017.15 1017.63 1018.21 1017.77 1017.77 1017.73 1017.80 1017.94 1018.17 1018.47 1018.67 1018.93 1019.21 1019.76 1019.73 1019.71 1019.62 1019.91 1019.99 1020.01
997.70 997.46 998.99 998.55 999.72 1002.31 1004.60 1006.07 1008.71 1010.37 1008.72 1010.36 1009.94 1009.17 1009.17 1009.43 1009.57 1009.46 1009.59 1009.92 1010.72 1012.16 1013.19 1014.36 1014.97 1015.45 1015.82 1016.40 1016.98 1017.29 1018.15 1018.75 1018.31 1017.98 1017.77 1017.93 1017.96 1018.17 1018.39 1018.66 1019.06 1019.51 1020.20 1020.02 1019.90 1019.73 1019.97 1020.29 1020.24
998.29 998.08 997.88 998.72 999.33 1000.61 1002.47 1004.20 1008.52 1010.47 1011.00 1008.93 1009.11 1009.04 1009.33 1009.66 1009.80 1009.85 1009.78 1009.76 1010.68 1011.64 1012.64 1013.77 1014.76 1015.30 1015.62 1016.00 1016.66 1016.95 1017.84 1019.41 1019.51 1019.30 1018.54 1018.14 1018.10 1018.13 1018.23 1018.58 1018.96 1019.44 1020.06 1020.12 1019.62 1019.56 1020.01 1020.32 1020.35
998.74 998.63 998.45 998.88 999.20 999.49 1000.89 1003.47 1006.85 1009.67 1010.50 1011.05 1010.87 1011.01 1010.69 1010.37 1009.99 1009.85 1010.07 1010.13 1010.49 1011.13 1012.18 1013.41 1014.41 1015.01 1015.36 1015.74 1015.94 1016.38 1017.32 1018.88 1018.99 1019.24 1018.20 1017.73 1017.63 1017.86 1017.93 1018.08 1018.72 1019.35 1019.43 1019.77 1019.73 1019.68 1020.02 1020.19 1020.33
998.81 998.76 998.17 998.40 998.99 999.57 1001.06 1004.05 1007.35 1009.42 1011.17 1011.48 1012.45 1012.45 1011.84 1011.18 1010.71 1010.24 1009.27 1010.36 1010.74 1011.42 1011.96 1013.15 1014.38 1014.91 1015.17 1015.31 1015.58 1015.74 1016.55 1017.85 1018.42 1018.31 1017.54 1016.87 1017.59 1018.74 1018.93 1018.50 1018.16 1018.87 1019.50 1019.59 1019.63 1019.97 1019.93 1020.00 1020.19
999.09 998.92 998.35 998.05 998.67 999.56 1002.60 1006.20 1008.26 1009.67 1011.28 1012.71 1013.21 1012.84 1012.77 1012.32 1011.26 1010.38 1009.99 1010.65 1011.47 1011.98 1012.43 1012.80 1013.95 1014.75 1015.05 1015.16 1015.47 1015.55 1015.69 1016.25 1016.68 1016.73 1016.31 1016.82 1018.47 1019.08 1018.80 1019.40 1018.66 1018.22 1019.03 1019.41 1019.64 1020.00 1020.02 1020.13 1020.37
1000.24 999.82 999.32 998.73 999.09 999.53 1002.92 1005.29 1006.81 1009.41 1011.29 1012.26 1012.99 1013.31 1013.49 1013.02 1012.40 1010.87 1011.76 1012.54 1012.93 1013.29 1013.85 1014.54 1013.55 1014.29 1014.62 1015.02 1015.13 1015.31 1015.49 1015.72 1015.93 1016.16 1015.98 1016.88 1018.91 1019.64 1019.43 1020.27 1018.98 1018.10 1018.61 1019.19 1019.67 1019.85 1019.94 1020.14 1020.35
1000.84 1000.31 999.66 999.26 999.10 999.81 1003.47 1006.44 1007.71 1009.41 1011.61 1012.51 1013.46 1014.08 1014.24 1014.06 1013.83 1013.95 1013.95 1014.07 1013.62 1013.24 1013.41 1016.81 1015.59 1014.49 1014.56 1014.77 1014.79 1015.01 1015.37 1015.64 1016.01 1016.21 1015.92 1016.32 1017.81 1019.67 1018.89 1019.37 1018.91 1018.14 1018.81 1019.23 1019.71 1020.00 1020.12 1020.18 1020.18
1000.57 1000.10 999.89 999.57 999.63 1000.15 1004.11 1008.42 1009.41 1010.50 1011.80 1013.01 1014.05 1014.78 1014.91 1014.69 1014.57 1014.78 1015.02 1015.66 1015.95 1015.77 1016.92 1015.59 1014.75 1017.71 1015.63 1014.93 1014.92 1014.95 1015.31 1015.63 1015.86 1016.29 1016.31 1016.34 1016.25 1016.93 1017.97 1017.88 1018.07 1018.36 1018.98 1019.25 1019.57 1019.90 1019.81 1020.05 1020.08
Thickness
5801 5801 5803 5786 5755 5765 5767 5788 5821 5821 5824 5841 5842 5821 5797 5798 5788 5753 5792 5790 5779 5770 5761 5759 5755 5753 5752 5750 5748 5747 5746 5744 5743 5742 5742 5742 5743 5742 5742 5743 5743 5743 5743 5743 5745 5747 5749 5748 5747
5808 5811 5798 5774 5756 5760 5772 5811 5810 5821 5831 5837 5828 5819 5804 5783 5805 5796 5791 5791 5781 5772 5767 5760 5755 5753 5752 5749 5747 5746 5746 5743 5742 5741 5742 5741 5740 5741 5742 5743 5744 5743 5743 5745 5746 5748 5749 5748 5748
5806 5809 5777 5765 5767 5772 5776 5812 5817 5826 5833 5830 5809 5817 5807 5789 5801 5802 5802 5796 5784 5776 5768 5760 5756 5753 5751 5750 5747 5746 5744 5742 5741 5741 5743 5742 5741 5741 5742 5743 5744 5744 5744 5744 5746 5748 5748 5748 5750
5804 5800 5790 5772 5776 5798 5802 5819 5824 5822 5831 5828 5817 5793 5807 5815 5803 5804 5806 5799 5788 5777 5766 5760 5757 5755 5753 5750 5748 5746 5744 5743 5742 5742 5742 5743 5743 5742 5743 5744 5745 5745 5745 5745 5746 5748 5748 5748 5750
5810 5795 5775 5774 5795 5805 5818 5827 5829 5819 5819 5816 5811 5789 5790 5808 5810 5809 5805 5800 5790 5778 5767 5761 5759 5757 5755 5753 5750 5747 5746 5744 5743 5742 5743 5743 5743 5743 5744 5745 5745 5745 5746 5747 5746 5749 5748 5748 5751
5788 5796 5778 5775 5789 5810 5821 5826 5820 5819 5817 5808 5800 5792 5790 5808 5804 5809 5809 5796 5791 5781 5771 5764 5760 5758 5756 5753 5753 5750 5747 5745 5744 5743 5744 5743 5744 5744 5744 5745 5746 5747 5748 5749 5748 5749 5750 5751 5753
5792 5790 5777 5784 5789 5787 5808 5827 5808 5812 5810 5803 5812 5784 5793 5799 5807 5811 5807 5797 5792 5786 5775 5767 5762 5759 5757 5755 5754 5753 5750 5748 5746 5746 5747 5746 5744 5744 5745 5746 5747 5748 5748 5749 5750 5750 5751 5754 5755
5817 5802 5790 5793 5787 5783 5803 5814 5811 5805 5799 5819 5817 5782 5784 5802 5813 5809 5810 5794 5789 5786 5779 5773 5766 5764 5761 5757 5756 5755 5753 5751 5750 5749 5748 5747 5745 5745 5746 5747 5747 5749 5749 5750 5752 5753 5755 5758 5758
5829 5768 5777 5796 5797 5791 5797 5793 5804 5814 5812 5812 5815 5807 5811 5812 5817 5807 5796 5790 5789 5790 5785 5779 5771 5766 5762 5757 5755 5757 5756 5754 5754 5751 5750 5749 5750 5749 5748 5748 5749 5750 5751 5752 5753 5754 5756 5757 5760
5794 5752 5773 5818 5818 5797 5794 5795 5796 5800 5800 5804 5807 5811 5811 5813 5811 5802 5791 5788 5785 5783 5784 5783 5778 5767 5770 5767 5758 5755 5757 5759 5758 5757 5755 5753 5754 5755 5752 5750 5751 5753 5754 5754 5755 5754 5756 5758 5761
5790 5766 5804 5812 5824 5810 5801 5793 5792 5788 5789 5803 5798 5802 5804 5809 5808 5805 5800 5796 5786 5789 5786 5777 5773 5772 5773 5775 5767 5761 5761 5761 5761 5760 5759 5761 5757 5755 5756 5754 5754 5755 5756 5757 5758 5749 5753 5761 5764
5793 5813 5821 5822 5819 5804 5798 5797 5776 5775 5792 5809 5809 5807 5807 5804 5806 5806 5802 5796 5796 5787 5789 5784 5778 5778 5765 5758 5771 5767 5763 5764 5763 5763 5763 5765 5761 5757 5758 5759 5759 5758 5759 5759 5753 5756 5763 5766 5771
5819 5825 5828 5825 5815 5802 5795 5788 5775 5771 5795 5808 5808 5805 5804 5807 5808 5811 5809 5802 5793 5782 5791 5785 5782 5779 5758 5737 5765 5768 5767 5768 5765 5765 5767 5766 5767 5765 5764 5763 5763 5761 5762 5760 5755 5754 5760 5767 5770
5838 5824 5828 5823 5814 5803 5786 5773 5781 5773 5796 5797 5802 5800 5804 5808 5809 5811 5806 5800 5797 5798 5794 5790 5784 5780 5779 5774 5771 5769 5774 5762 5764 5766 5768 5769 5769 5769 5767 5765 5767 5764 5761 5758 5760 5765 5763 5769 5771
5835 5821 5829 5812 5808 5801 5795 5764 5762 5777 5792 5795 5800 5801 5804 5809 5812 5808 5805 5799 5800 5801 5796 5790 5787 5783 5776 5774 5771 5763 5763 5763 5767 5768 5768 5771 5771 5769 5769 5769 5768 5767 5764 5760 5760 5763 5769 5771 5775
5818 5824 5802 5816 5814 5807 5800 5754 5759 5774 5783 5795 5799 5801 5804 5807 5808 5810 5807 5802 5801 5802 5795 5792 5793 5786 5778 5772 5772 5771 5771 5768 5769 5774 5771 5771 5772 5771 5771 5771 5770 5770 5768 5766 5764 5768 5771 5778 5778
5812 5796 5810 5804 5825 5800 5789 5750 5756 5774 5783 5795 5799 5801 5802 5803 5805 5808 5807 5803 5800 5800 5795 5795 5794 5788 5783 5778 5775 5772 5768 5770 5777 5773 5774 5774 5774 5773 5773 5771 5771 5773 5772 5768 5770 5773 5775 5778 5780
5796 5807 5816 5809 5813 5798 5775 5755 5756 5767 5771 5792 5799 5802 5800 5798 5800 5806 5806 5805 5803 5800 5796 5797 5796 5791 5787 5783 5781 5779 5781 5782 5770 5772 5772 5777 5777 5774 5771 5774 5775 5775 5774 5773 5773 5772 5781 5782 5785
5828 5830 5813 5824 5814 5799 5781 5759 5757 5762 5777 5792 5797 5800 5799 5796 5803 5806 5807 5806 5803 5799 5795 5796 5793 5791 5788 5785 5781 5778 5778 5783 5780 5774 5775 5781 5782 5779 5772 5773 5777 5777 5776 5777 5779 5782 5783 5784 5790
5816 5809 5814 5784 5804 5792 5773 5755 5757 5757 5766 5786 5797 5801 5799 5794 5799 5804 5806 5806 5802 5797 5794 5794 5794 5792 5789 5788 5791 5789 5779 5782 5785 5786 5786 5787 5784 5782 5782 5781 5782 5779 5780 5781 5782 5782 5782 5786 5791
5816 5819 5807 5758 5792 5786 5767 5736 5736 5746 5758 5766 5796 5804 5802 5796 5795 5803 5805 5805 5803 5797 5794 5794 5795 5794 5791 5793 5790 5785 5780 5778 5777 5784 5789 5789 5787 5786 5785 5784 5783 5782 5783 5783 5784 5784 5784 5782 5790
5802 5843 5796 5794 5785 5760 5790 5729 5753 5753 5751 5747 5782 5789 5799 5797 5796 5807 5806 5807 5805 5800 5799 5797 5796 5795 5794 5790 5791 5789 5785 5773 5783 5785 5792 5792 5790 5789 5787 5786 5785 5784 5782 5784 5786 5788 5788 5787 5782
5810 5843 5819 5833 5815 5779 5780 5772 5760 5757 5741 5745 5763 5793 5799 5801 5801 5806 5809 5812 5812 5807 5802 5799 5798 5797 5797 5792 5783 5785 5778 5778 5786 5786 5792 5792 5792 5790 5788 5788 5786 5785 5783 5784 5787 5788 5789 5788 5788
5824 5817 5823 5818 5817 5775 5791 5796 5744 5734 5740 5782 5792 5798 5800 5798 5802 5805 5811 5816 5811 5811 5807 5802 5798 5797 5798 5797 5789 5786 5783 5768 5767 5770 5784 5790 5791 5793 5791 5789 5788 5786 5785 5786 5790 5791 5790 5789 5790
5804 5794 5767 5765 5771 5778 5818 5795 5760 5753 5759 5757 5767 5773 5783 5789 5798 5804 5804 5809 5810 5812 5809 5803 5798 5796 5799 5798 5798 5795 5784 5773 5764 5774 5787 5794 5795 5794 5795 5793 5790 5786 5788 5787 5789 5792 5792 5792 5791
5789 5791 5777 5747 5761 5788 5815 5754 5744 5761 5756 5754 5756 5766 5775 5780 5783 5796 5814 5805 5805 5806 5809 5803 5795 5794 5798 5800 5800 5804 5797 5783 5783 5782 5796 5805 5799 5788 5787 5794 5795 5791 5787 5789 5791 5791 5793 5795 5795
5780 5772 5815 5804 5812 5803 5770 5745 5751 5757 5752 5745 5749 5761 5764 5773 5792 5780 5799 5804 5800 5795 5800 5806 5796 5793 5795 5799 5799 5802 5806 5803 5800 5802 5808 5805 5787 5787 5787 5782 5795 5797 5791 5790 5792 5792 5793 5794 5794
5767 5796 5771 5787 5755 5773 5757 5751 5745 5746 5745 5748 5747 5752 5757 5769 5776 5793 5785 5785 5788 5786 5788 5788 5799 5793 5795 5797 5801 5802 5804 5807 5809 5808 5810 5805 5783 5778 5776 5783 5793 5803 5795 5791 5792 5794 5796 5795 5795
5758 5759 5776 5791 5799 5778 5735 5727 5758 5745 5743 5741 5742 5741 5746 5754 5762 5764 5767 5768 5779 5785 5783 5755 5774 5783 5788 5792 5798 5802 5801 5803 5804 5805 5810 5808 5797 5779 5788 5785 5797 5804 5795 5792 5792 5793 5795 5795 5796
5772 5770 5780 5761 5766 5793 5733 5701 5740 5744 5745 5738 5733 5734 5740 5748 5754 5755 5753 5752 5750 5759 5752 5759 5777 5744 5777 5788 5792 5797 5798 5800 5800 5799 5804 5805 5812 5810 5803 5804 5806 5801 5795 5794 5793 5792 5796 5794 5795